FW4624 Weather Reports


time (UTC)temp
F
wind
direction
speed
knots
gust
knots
rain 1hr
in
rain 24hr
in
rain mn
in
humidity
%
barometer
mb
20260506132051 64 225 5.2 9.6 0.00 0.56 0.47 73 1005.6
20260506131549 63 200 5.2 9.6 0.00 0.56 0.47 72 1005.7
20260506131049 64 204 3.5 8.7 0.00 0.56 0.47 74 1005.7
20260506130549 63 200 4.3 8.7 0.00 0.56 0.47 72 1005.7
20260506130051 64 190 6.1 9.6 0.00 0.56 0.47 73 1005.6
20260506125548 64 173 6.1 9.6 0.00 0.56 0.47 73 1005.7
20260506125048 64 213 5.2 11.3 0.00 0.56 0.47 73 1005.7
20260506124547 64 198 7.8 13.0 0.00 0.56 0.47 69 1005.8
20260506124047 64 248 7.0 10.4 0.00 0.56 0.47 71 1005.7
20260506123547 65 219 6.1 9.6 0.00 0.56 0.47 70 1005.7
20260506123047 65 220 5.2 8.7 0.00 0.56 0.47 70 1005.7
20260506122546 65 207 5.2 10.4 0.00 0.56 0.47 72 1005.7
20260506122045 64 209 6.1 9.6 0.00 0.56 0.47 72 1005.7
20260506121544 63 222 5.2 10.4 0.00 0.56 0.47 72 1005.8
20260506121044 63 220 6.1 10.4 0.00 0.56 0.47 74 1005.8
20260506120544 63 207 6.1 8.7 0.00 0.56 0.47 73 1005.8
20260506120044 62 223 5.2 9.6 0.00 0.56 0.47 73 1005.7
20260506115546 62 224 5.2 9.6 0.00 0.56 0.47 73 1005.8
20260506115043 62 219 3.5 8.7 0.00 0.56 0.47 74 1005.8
20260506114543 63 234 5.2 8.7 0.00 0.56 0.47 74 1005.9
20260506114043 63 198 4.3 8.7 0.00 0.56 0.47 76 1005.8
20260506113543 63 227 4.3 10.4 0.00 0.56 0.47 74 1005.9
20260506113043 63 240 5.2 10.4 0.00 0.56 0.47 74 1005.8
20260506112542 63 187 3.5 7.8 0.00 0.56 0.47 75 1005.9
20260506112043 63 220 5.2 7.8 0.00 0.56 0.47 76 1005.9
20260506111540 62 180 3.5 7.8 0.00 0.56 0.47 76 1005.9
20260506111040 62 209 3.5 8.7 0.00 0.56 0.47 76 1005.9
20260506110540 62 182 3.5 7.8 0.00 0.56 0.47 77 1005.8
20260506110042 62 207 3.5 7.0 0.00 0.56 0.47 76 1005.9
20260506105542 62 232 5.2 9.6 0.00 0.56 0.47 73 1005.9
20260506105043 62 198 4.3 9.6 0.00 0.56 0.47 73 1005.9
20260506104546 62 215 3.5 9.6 0.00 0.56 0.47 75 1005.9
20260506104040 62 218 6.1 8.7 0.00 0.56 0.47 74 1005.9
20260506103539 62 221 5.2 9.6 0.00 0.56 0.47 74 1005.9
20260506103041 62 242 5.2 9.6 0.00 0.56 0.47 75 1006.0
20260506102542 62 240 6.1 10.4 0.00 0.56 0.47 75 1006.0
20260506102038 62 258 6.1 10.4 0.00 0.56 0.47 75 1005.9
20260506101537 62 221 5.2 9.6 0.00 0.56 0.47 76 1006.0
20260506101037 62 208 5.2 10.4 0.00 0.56 0.47 78 1006.0
20260506100537 62 240 6.1 10.4 0.00 0.56 0.47 76 1005.9
20260506100037 62 243 5.2 8.7 0.00 0.56 0.47 77 1006.0
20260506095537 61 202 4.3 8.7 0.00 0.56 0.47 77 1006.0
20260506095036 61 178 4.3 9.6 0.00 0.56 0.47 76 1006.1
20260506094536 61 223 5.2 10.4 0.00 0.56 0.47 77 1006.0
20260506094036 61 173 7.0 12.2 0.00 0.56 0.47 78 1006.0
20260506093535 61 252 6.1 12.2 0.00 0.56 0.47 78 1006.1
20260506093039 61 192 5.2 13.0 0.00 0.56 0.47 79 1006.0
20260506092535 61 227 4.3 10.4 0.00 0.56 0.47 81 1006.0
20260506092035 61 235 4.3 9.6 0.00 0.56 0.47 79 1006.0
20260506091535 61 207 5.2 10.4 0.00 0.56 0.47 79 1005.9
20260506091035 61 223 5.2 10.4 0.00 0.56 0.47 81 1005.8
20260506090533 61 232 6.1 9.6 0.00 0.56 0.47 81 1005.9
20260506090034 60 205 6.1 9.6 0.00 0.56 0.47 82 1005.9
20260506085533 60 243 7.0 10.4 0.00 0.56 0.47 81 1005.9
20260506085034 60 217 7.0 10.4 0.00 0.56 0.47 82 1005.8
20260506084537 60 194 5.2 12.2 0.00 0.56 0.47 83 1005.9
20260506084036 60 244 7.0 12.2 0.00 0.56 0.47 83 1005.8
20260506083534 60 188 6.1 10.4 0.00 0.56 0.47 84 1005.7
20260506083036 60 202 5.2 12.2 0.00 0.56 0.47 83 1005.7
20260506082533 60 227 7.8 11.3 0.00 0.56 0.47 82 1005.7
20260506082032 61 221 6.1 11.3 0.00 0.56 0.47 82 1005.9
20260506081531 62 248 6.1 12.2 0.00 0.56 0.47 83 1005.9
20260506081031 62 204 6.1 8.7 0.00 0.56 0.47 84 1005.8
20260506080529 61 200 4.3 8.7 0.00 0.56 0.47 86 1005.9
20260506073524 58 236 6.1 10.4 0.00 0.56 0.47 90 1005.8
20260506073022 58 219 3.5 9.6 0.00 0.56 0.47 92 1005.8
20260506072524 58 206 7.0 9.6 0.00 0.56 0.47 92 1005.9
20260506072020 58 254 4.3 9.6 0.00 0.56 0.47 93 1005.9
20260506071520 57 219 5.2 8.7 0.00 0.56 0.47 93 1005.9
20260506071019 57 193 5.2 7.8 0.00 0.56 0.47 93 1005.9
20260506070519 57 231 5.2 9.6 0.00 0.56 0.47 94 1005.7
20260506062517 56 242 4.3 8.7 0.00 0.56 0.47 94 1005.8
20260506062017 57 193 4.3 7.0 0.00 0.56 0.47 94 1005.7
20260506061524 57 198 4.3 7.8 0.00 0.56 0.47 94 1005.7
20260506061018 56 196 4.3 7.8 0.00 0.56 0.47 94 1005.7
20260506060517 56 197 3.5 6.1 0.00 0.56 0.47 95 1005.6
20260506051015 54 200 0.9 4.3 0.00 0.56 0.47 94 1005.5
20260506050515 54 201 0.9 4.3 0.00 0.56 0.47 94 1005.5
20260506045013 54 201 1.7 3.5 0.00 0.56 0.47 95 1005.5
20260506044519 54 202 1.7 3.5 0.00 0.56 0.47 95 1005.7
20260506044013 54 203 1.7 4.3 0.00 0.56 0.47 95 1005.6
20260506043515 54 203 0.9 3.5 0.00 0.56 0.47 94 1005.6
20260506043019 54 204 0.9 4.3 0.00 0.56 0.47 94 1005.6
20260506042514 54 204 0.9 4.3 0.00 0.56 0.47 95 1005.6
20260506042013 54 204 0.9 3.5 0.00 0.56 0.47 95 1005.6
20260506041516 54 204 1.7 5.2 0.00 0.56 0.47 95 1005.6
20260506041015 54 203 2.6 7.0 0.00 0.56 0.47 95 1005.6
20260506040514 54 205 2.6 7.0 0.00 0.56 0.47 95 1005.6
20260506040012 54 198 2.6 7.0 0.00 0.56 0.47 95 1005.6
20260506035511 54 194 2.6 7.0 0.00 0.56 0.47 95 1005.6
20260506035013 54 194 3.5 7.0 0.00 0.56 0.47 95 1005.6
20260506034511 54 200 2.6 6.1 0.00 0.56 0.47 94 1005.6
20260506034010 54 198 2.6 6.1 0.00 0.56 0.47 94 1005.6
20260506033509 54 200 2.6 7.0 0.00 0.56 0.47 94 1005.6
20260506033009 54 213 3.5 7.0 0.00 0.56 0.47 94 1005.6
20260506032508 54 215 2.6 6.1 0.00 0.56 0.47 94 1005.5
20260506032007 54 202 2.6 6.1 0.00 0.56 0.47 94 1005.5
20260506031507 55 216 3.5 6.1 0.01 0.56 0.47 94 1005.6
20260506031006 55 205 3.5 6.1 0.02 0.56 0.47 94 1005.6
20260506030506 55 193 2.6 6.1 0.02 0.56 0.47 95 1005.5
20260506030005 55 211 3.5 6.1 0.02 0.56 0.47 95 1005.6
20260506025505 55 209 2.6 5.2 0.02 0.56 0.47 95 1005.6
20260506025004 55 221 2.6 5.2 0.02 0.56 0.47 95 1005.6
20260506024505 55 227 2.6 4.3 0.02 0.56 0.47 95 1005.7
20260506024005 55 227 1.7 4.3 0.02 0.56 0.47 95 1005.6
20260506023504 55 231 2.6 4.3 0.02 0.56 0.47 95 1005.6
20260506023002 55 233 2.6 4.3 0.02 0.56 0.47 95 1005.6
20260506022502 55 234 2.6 4.3 0.02 0.56 0.47 94 1005.7
20260506022002 55 234 1.7 5.2 0.02 0.56 0.47 94 1005.6
20260506021503 55 234 0.9 5.2 0.02 0.56 0.46 94 1005.6
20260506021004 55 202 0.0 3.5 0.00 0.55 0.45 94 1005.7
20260506020505 55 202 0.9 3.5 0.00 0.55 0.45 94 1005.6
20260506020002 55 201 0.9 4.3 0.01 0.55 0.45 94 1005.6
20260506015503 55 201 1.7 3.5 0.01 0.55 0.45 94 1005.7
20260506015003 55 202 0.9 2.6 0.02 0.55 0.45 94 1005.5
20260506014501 55 202 0.0 2.6 0.04 0.55 0.45 94 1005.5
20260506014002 55 203 0.0 2.6 0.06 0.55 0.45 94 1005.7
20260506013600 55 203 0.9 1.7 0.07 0.55 0.45 94 1005.7
20260506013106 55 203 0.0 2.6 0.09 0.55 0.45 94 1005.8
20260506012559 55 203 0.9 2.6 0.12 0.55 0.45 94 1005.9
20260506012101 55 203 0.0 2.6 0.14 0.55 0.45 94 1006.0
20260506011623 55 203 0.0 1.7 0.16 0.55 0.45 94 1005.9
20260506011058 55 203 0.0 0.9 0.20 0.55 0.45 94 1005.9
20260506010558 55 203 0.0 0.9 0.26 0.55 0.45 94 1005.9
20260506010119 55 203 0.0 1.7 0.35 0.54 0.44 94 1005.9
20260506005558 55 203 0.9 1.7 0.42 0.54 0.44 94 1006.0
20260506005101 55 203 0.9 1.7 0.42 0.53 0.43 94 1006.0
20260506004557 55 203 0.9 1.7 0.41 0.51 0.41 94 1005.9
20260506004056 55 203 0.0 1.7 0.39 0.50 0.39 94 1006.0
20260506003556 55 203 0.0 0.0 0.37 0.47 0.37 94 1006.0
20260506003057 55 203 0.0 0.9 0.35 0.46 0.35 94 1006.0
20260506002554 55 203 0.0 1.7 0.33 0.43 0.33 94 1006.1
20260506002053 55 203 0.0 1.7 0.31 0.41 0.31 94 1006.2
20260506001556 55 203 0.0 2.6 0.28 0.39 0.28 94 1006.3
20260506001051 55 203 0.9 2.6 0.24 0.35 0.24 94 1006.3
20260506000550 56 203 0.0 5.2 0.19 0.28 0.19 94 1006.4
20260506000057 57 203 1.7 5.2 0.09 0.20 0.09 94 1006.5
20260505235549 57 224 2.6 6.1 0.02 0.13 0.02 94 1006.5
20260505235049 57 247 1.7 3.5 0.01 0.11 0.01 94 1006.4
20260505234549 57 248 1.7 2.6 0.00 0.10 0.00 94 1006.5
20260505234047 57 248 0.9 2.6 0.00 0.10 0.00 94 1006.5
20260505233547 57 248 1.7 3.5 0.00 0.10 0.00 94 1006.6
20260505233047 57 248 1.7 3.5 0.00 0.10 0.00 94 1006.5
20260505232548 57 250 0.9 3.5 0.00 0.10 0.00 94 1006.5
20260505232046 57 250 1.7 3.5 0.00 0.10 0.00 94 1006.5
20260505231546 57 251 0.9 3.5 0.00 0.10 0.00 94 1006.5
20260505231045 57 251 1.7 3.5 0.00 0.10 0.00 94 1006.5
20260505230546 57 251 0.9 2.6 0.00 0.10 0.00 94 1006.6
20260505230045 57 251 0.9 2.6 0.00 0.10 0.00 94 1006.6
20260505225545 57 251 0.9 2.6 0.00 0.10 0.00 94 1006.6
20260505225045 57 251 0.0 3.5 0.00 0.10 0.00 94 1006.7
20260505224544 57 251 0.9 3.5 0.00 0.10 0.00 94 1006.7
20260505224043 57 251 0.9 2.6 0.00 0.10 0.00 94 1006.7
20260505223546 57 251 0.9 2.6 0.00 0.10 0.00 94 1006.7
20260505223042 56 251 0.0 1.7 0.00 0.10 0.00 94 1006.7
20260505222541 56 251 0.0 0.9 0.00 0.10 0.00 94 1006.8
20260505222041 56 251 0.0 1.7 0.00 0.10 0.00 94 1006.8
20260505221546 56 251 0.0 1.7 0.00 0.10 0.00 94 1006.9
20260505221040 56 251 0.0 1.7 0.00 0.10 0.00 94 1006.9
20260505220539 56 251 0.0 1.7 0.00 0.10 0.00 94 1006.9
20260505220053 56 251 0.0 1.7 0.00 0.10 0.00 94 1006.9
20260505215541 56 251 0.0 0.0 0.00 0.10 0.10 94 1007.0
20260505215039 56 251 0.0 0.0 0.00 0.10 0.10 94 1007.0
20260505214546 56 251 0.0 0.0 0.00 0.10 0.10 94 1006.9
20260505214039 56 251 0.0 0.0 0.00 0.10 0.10 94 1007.1
20260505213539 56 251 0.0 0.0 0.00 0.10 0.10 94 1007.1
20260505213040 57 251 0.0 0.0 0.00 0.10 0.10 94 1007.1
20260505212538 57 251 0.0 0.0 0.00 0.10 0.10 93 1007.0
20260505212038 57 251 0.0 0.0 0.01 0.10 0.10 94 1007.1
20260505211540 57 251 0.0 0.0 0.01 0.10 0.10 94 1007.1
20260505211037 57 251 0.0 0.0 0.01 0.10 0.10 94 1007.1
20260505210537 57 251 0.0 0.0 0.01 0.10 0.10 94 1007.1
20260505210045 57 251 0.0 0.0 0.01 0.10 0.10 94 1007.1
20260505205537 57 251 0.0 0.0 0.01 0.10 0.10 93 1007.1
20260505205039 57 251 0.0 0.0 0.01 0.10 0.10 93 1007.2
20260505204545 57 251 0.0 0.0 0.01 0.10 0.10 93 1007.2
20260505204039 57 251 0.0 0.0 0.01 0.10 0.10 93 1007.2
20260505203537 57 251 0.0 0.0 0.01 0.10 0.10 93 1007.2
20260505203036 57 251 0.0 0.0 0.01 0.10 0.10 93 1007.3
20260505202536 57 251 0.0 0.0 0.01 0.10 0.10 93 1007.2
20260505202036 57 251 0.0 0.0 0.00 0.09 0.09 93 1007.2
20260505201538 57 251 0.0 0.0 0.00 0.09 0.09 93 1007.3
20260505201036 57 251 0.0 0.0 0.00 0.09 0.09 93 1007.2
20260505200536 57 251 0.0 0.0 0.00 0.09 0.09 93 1007.2
20260505200036 57 251 0.0 0.0 0.00 0.09 0.09 93 1007.2
20260505195536 57 251 0.0 0.0 0.00 0.09 0.09 93 1007.1
20260505195036 57 251 0.0 0.0 0.00 0.09 0.09 93 1007.1
20260505194535 57 251 0.0 0.0 0.00 0.09 0.09 93 1007.1
20260505194036 57 251 0.0 0.0 0.00 0.09 0.09 93 1007.2
20260505193535 57 251 0.0 0.0 0.01 0.09 0.09 93 1007.1
20260505193041 57 251 0.0 0.0 0.01 0.09 0.09 93 1007.1
20260505192534 58 251 0.0 0.0 0.01 0.09 0.09 93 1007.1
20260505192034 58 251 0.0 0.0 0.01 0.09 0.09 93 1007.2
20260505191535 58 251 0.0 0.0 0.01 0.09 0.09 93 1007.0
20260505191037 58 251 0.0 0.0 0.02 0.09 0.09 93 1007.0
20260505190538 58 251 0.0 0.9 0.02 0.09 0.09 93 1007.0
20260505190038 58 251 0.0 2.6 0.02 0.09 0.09 93 1006.9
20260505185534 58 251 0.0 2.6 0.02 0.09 0.09 93 1006.9
20260505185036 58 251 0.0 1.7 0.02 0.09 0.09 92 1007.0
20260505184533 58 251 0.9 1.7 0.02 0.09 0.09 92 1006.8
20260505184033 58 251 0.0 1.7 0.03 0.09 0.09 92 1007.0
20260505183536 59 251 0.0 1.7 0.02 0.09 0.09 92 1007.0
20260505183046 59 251 0.0 1.7 0.02 0.09 0.09 92 1007.0
20260505182533 59 251 0.0 1.7 0.02 0.09 0.09 92 1007.0
20260505182032 59 251 0.0 0.9 0.02 0.09 0.09 92 1007.1
20260505181532 59 251 0.0 0.0 0.03 0.09 0.09 92 1007.1
20260505181032 59 251 0.0 0.9 0.02 0.08 0.08 91 1007.1
20260505180533 59 251 0.0 0.9 0.02 0.08 0.08 91 1007.1
20260505180032 59 251 0.0 1.7 0.02 0.08 0.08 91 1007.1
20260505175534 59 251 0.0 1.7 0.02 0.07 0.07 91 1007.1
20260505175032 59 251 0.0 1.7 0.02 0.07 0.07 90 1007.1
20260505174532 59 251 0.0 0.0 0.02 0.07 0.07 90 1007.1
20260505174032 59 251 0.0 1.7 0.02 0.06 0.06 90 1007.1
20260505173531 59 251 0.0 2.6 0.02 0.06 0.06 90 1007.1
20260505173031 59 251 0.9 2.6 0.02 0.06 0.06 90 1007.1
20260505172530 59 251 0.0 2.6 0.02 0.06 0.06 90 1007.2
20260505172031 59 251 0.0 2.6 0.02 0.06 0.06 90 1007.1
20260505171530 59 251 0.0 0.9 0.02 0.06 0.06 90 1007.1
20260505171030 60 251 0.0 0.9 0.02 0.06 0.06 90 1007.2
20260505170529 60 251 0.0 0.9 0.02 0.06 0.06 90 1007.2
20260505170031 60 251 0.0 1.7 0.02 0.06 0.06 90 1007.2
20260505165529 60 251 0.9 1.7 0.01 0.05 0.05 90 1007.2
20260505165029 60 251 0.0 0.9 0.02 0.05 0.05 90 1007.2
20260505164545 60 251 0.0 1.7 0.02 0.05 0.05 90 1007.2
20260505164029 59 251 0.0 1.7 0.02 0.05 0.05 90 1007.2
20260505163530 60 251 0.0 0.9 0.02 0.05 0.05 90 1007.3
20260505163029 60 251 0.0 2.6 0.02 0.04 0.04 90 1007.3
20260505162528 60 251 0.0 3.5 0.02 0.04 0.04 90 1007.3
20260505162028 59 251 0.9 3.5 0.03 0.04 0.04 90 1007.3
20260505161530 60 251 0.0 1.7 0.03 0.04 0.04 90 1007.4
20260505161029 60 251 0.0 3.5 0.03 0.04 0.04 90 1007.3
20260505160528 60 250 0.0 3.5 0.03 0.04 0.04 90 1007.4
20260505153027 60 234 7.0 11.3 0.02 0.02 0.02 88 1007.4
20260505152526 60 245 7.0 13.9 0.02 0.02 0.02 87 1007.3
20260505152026 60 247 8.7 14.8 0.01 0.01 0.01 86 1007.2
20260505151526 61 205 9.6 14.8 0.01 0.01 0.01 86 1007.3
20260505151026 61 243 9.6 15.6 0.01 0.01 0.01 84 1007.2
20260505150526 62 237 7.8 17.4 0.01 0.01 0.01 81 1007.2
20260505140521 70 167 0.9 4.3 0.00 0.00 0.00 56 1006.8